Location: Lewisville
(33.0462°N, 96.9942°W)
Time: 10:12:05
(UTC-06:00)

Hubble Space Telescope - Pass Details

Date: 16 December 2021
Orbit: 534 x 538 km, 28.5° (Epoch: 19 January)

Event Time Altitude Azimuth Distance (km) Brightness Sun altitude
Rises 20:13:39 0° 257° (WSW) 2,672 5.4 -34.8°
Reaches altitude 10° 20:15:59 10° 251° (WSW) 1,782 4.2 -35.3°
Enters shadow 20:16:28 13° 249° (WSW) 1,603 3.9 -35.4°
